Location: Mauries
(43.6188°N, 0.3322°W)
Time: 05:06:44
(UTC+00:00)

Okean 2 - Pass Details

Date: 14 January 2026
Orbit: 515 x 525 km, 82.5° (Epoch: 14 February)

Event Time Altitude Azimuth Distance (km) Brightness Sun altitude
Exits shadow 06:17:52 18° 315° (NW) 1,302 4.7 -13.2°
Maximum altitude 06:19:50 28° 269° (W) 981 4.1 -12.9°
Drops below altitude 10° 06:23:08 10° 209° (SSW) 1,737 5.8 -12.3°
Sets 06:25:26 0° 198° (SSW) 2,618 6.8 -11.9°
